Wetbulb
45.53 45.45 45.73 46.81 47.50 48.18 46.90 47.41 42.52 56.05 57.70 48.31 48.97 45.70 47.73 46.25 51.27 48.32 46.00 46.10 46.08 45.34 45.17 44.36 44.74 43.96 45.61 48.09 49.01 46.40 49.85 47.84 43.18 43.88 46.61 47.15 47.71 46.84 46.32 42.28 38.61 41.53 40.59 40.37
45.45 45.18 45.27 46.13 47.06 47.63 47.49 44.74 45.72 55.72 55.09 41.62 43.85 47.47 46.79 48.54 48.96 49.95 47.66 45.40 46.70 47.43 45.54 42.75 45.49 45.38 48.66 48.18 48.24 46.97 49.37 45.19 40.50 40.85 43.63 45.15 43.52 45.72 46.11 46.17 45.26 40.73 38.53 40.60
45.34 45.04 44.91 45.20 46.56 47.55 46.98 44.16 36.19 46.28 49.58 48.69 45.16 44.17 44.55 44.88 50.31 49.66 49.91 47.10 47.43 46.37 45.33 47.23 45.18 45.11 47.19 48.53 48.63 46.10 49.82 46.22 43.81 40.12 42.53 46.11 42.48 43.12 44.28 44.87 40.61 40.30 40.41 42.29
46.03 45.35 44.91 44.80 46.04 47.01 46.44 43.88 38.63 44.44 38.13 41.82 44.46 45.90 45.24 44.21 44.12 49.07 50.56 48.11 46.60 46.22 43.79 44.98 44.54 46.78 47.16 47.67 45.93 47.71 49.11 43.75 45.90 44.83 44.04 43.63 43.92 43.12 43.40 41.22 42.90 39.94 42.39 42.28
46.60 45.68 45.09 44.58 45.68 46.37 43.77 41.64 40.24 43.19 42.10 44.36 43.32 42.80 42.18 43.36 45.41 46.60 46.34 46.29 48.28 45.77 44.81 46.36 44.70 46.83 47.61 46.34 48.44 47.96 49.64 44.38 45.43 41.85 43.79 43.50 42.29 45.03 44.82 44.33 44.09 43.57 43.85 43.62
46.87 46.01 45.65 44.86 45.57 45.65 42.86 44.70 44.72 41.07 41.05 42.02 42.03 42.42 42.36 42.35 45.63 48.11 49.21 48.47 47.64 44.98 46.38 48.35 50.42 52.22 50.68 50.53 48.61 47.14 47.19 45.35 43.08 39.21 43.88 42.79 39.57 44.01 45.64 46.57 46.30 45.96 42.69 47.27
46.83 46.37 46.04 45.84 45.52 45.45 45.72 44.09 43.62 38.26 35.26 40.10 41.12 42.29 42.89 43.16 45.26 44.95 48.26 49.53 47.99 49.66 50.75 51.69 51.38 50.46 49.52 49.85 49.37 50.82 46.89 45.66 44.78 39.87 41.57 32.84 45.29 48.63 47.40 45.88 47.95 48.80 47.93 47.36
46.53 46.32 46.04 45.92 45.64 45.80 45.04 46.21 43.15 39.49 35.04 38.80 39.82 41.05 41.95 44.72 45.47 45.30 47.82 48.00 49.74 51.34 47.35 42.63 43.18 43.65 44.09 45.43 47.52 48.01 49.73 47.15 42.31 38.02 38.28 42.45 45.02 47.02 45.22 44.12 44.91 48.57 47.69 47.79
46.50 46.25 46.13 46.00 45.78 45.23 45.44 45.27 47.21 42.67 35.85 35.82 40.60 38.97 42.05 41.25 42.60 44.70 47.55 50.02 49.59 48.92 45.36 41.82 39.26 36.33 39.70 39.39 42.70 47.10 47.33 48.83 44.55 40.86 36.32 35.02 45.08 46.51 47.99 47.16 41.16 47.95 48.03 47.50
46.19 46.17 45.92 45.94 45.83 45.08 45.28 44.33 48.48 42.93 36.67 40.31 39.95 37.63 37.16 40.86 39.98 42.94 47.04 47.62 46.04 47.57 41.88 38.46 36.84 38.27 44.83 39.50 39.12 39.13 41.85 43.24 39.90 40.50 39.11 42.70 48.15 47.20 47.27 39.28 43.44 48.34 48.67 48.20
45.56 45.65 45.75 45.54 45.64 45.48 45.02 43.66 48.02 43.71 38.84 40.56 41.47 41.59 40.06 40.02 38.46 35.73 41.30 42.90 43.98 42.94 36.30 37.60 41.04 40.77 44.46 43.08 44.69 43.26 41.35 40.59 39.78 41.85 39.04 36.08 50.44 46.51 42.82 48.96 50.09 49.12 49.39 49.57
45.13 45.35 45.56 45.46 45.27 45.40 45.10 40.89 46.62 48.11 40.30 40.84 45.32 45.73 45.72 44.42 42.60 38.38 38.99 37.89 44.78 46.23 42.98 43.47 44.52 42.87 45.49 43.65 39.36 47.26 41.93 45.35 43.72 44.32 43.90 50.42 50.72 49.78 51.36 51.91 49.98 49.93 49.93 49.62
44.76 44.80 45.14 45.18 44.68 44.80 44.33 42.49 44.47 45.38 39.49 40.09 40.28 40.39 45.77 47.98 47.59 46.29 36.42 39.15 45.53 47.71 50.98 46.37 45.84 42.74 46.74 41.32 42.79 45.40 47.19 50.15 47.07 46.50 48.90 50.12 50.03 50.19 51.09 51.61 50.89 51.00 50.64 48.89
44.37 44.23 44.55 44.50 44.66 44.66 44.49 42.35 45.13 44.82 40.80 34.73 38.35 46.74 44.31 48.21 48.35 47.40 45.91 43.95 43.65 41.70 42.01 45.70 45.51 43.35 48.17 44.77 46.55 46.08 48.71 48.79 47.23 47.22 48.81 49.52 49.80 49.93 50.49 50.77 51.08 49.94 49.52 48.44
43.26 43.64 43.86 43.87 44.15 44.22 45.00 45.29 45.68 46.67 39.89 35.82 36.81 43.53 45.81 47.22 46.70 44.92 45.05 43.15 40.72 39.25 42.11 41.99 40.23 46.79 46.65 47.87 47.69 46.22 49.67 47.63 45.69 45.16 51.05 49.52 50.19 50.75 50.76 49.80 48.87 48.90 47.79 46.68
43.27 43.52 43.49 43.79 44.10 44.18 43.56 35.33 45.01 47.19 45.67 37.46 32.59 43.01 43.16 45.93 47.16 43.71 42.74 42.83 41.84 41.46 42.30 42.82 46.33 49.77 47.23 44.09 42.53 48.51 50.50 51.77 52.16 50.56 52.46 52.28 52.12 52.36 51.16 49.46 49.01 48.66 47.56 46.49
42.91 43.41 43.79 44.03 43.99 44.22 37.79 37.71 42.94 45.07 46.11 38.14 33.51 35.56 43.49 44.55 46.24 45.52 47.38 47.78 43.67 44.18 42.63 42.21 46.62 47.71 46.16 44.08 41.65 48.45 50.31 51.55 51.98 52.59 51.25 49.02 51.05 49.44 50.70 49.58 48.60 47.18 47.06 46.22
43.22 43.35 43.56 43.68 43.97 42.93 39.37 43.90 44.95 46.08 42.42 40.77 32.74 33.89 39.00 47.62 42.87 42.20 48.10 44.61 45.38 45.55 42.57 42.89 41.89 45.78 45.28 41.87 45.99 48.81 50.80 51.48 51.40 50.66 50.90 51.56 51.05 50.50 49.11 48.39 46.54 44.87 43.81 43.12
43.04 43.11 43.08 42.67 38.03 34.33 38.19 43.97 44.44 48.56 41.70 35.10 34.82 32.01 32.73 47.27 43.96 45.39 44.96 45.94 39.79 42.90 39.07 41.83 42.48 40.71 40.21 45.27 46.77 48.04 49.83 50.44 50.06 50.26 49.71 49.73 48.33 47.83 46.57 45.24 44.72 43.27 41.94 41.42
42.70 40.59 34.00 32.03 36.38 43.94 42.75 37.78 37.78 37.61 38.89 38.10 33.08 38.86 34.63 43.23 41.05 39.32 42.50 43.41 37.66 34.84 39.00 41.74 38.46 39.53 46.51 49.47 49.70 50.52 51.09 51.73 52.04 47.43 45.58 46.65 45.96 45.53 44.36 43.86 44.13 42.97 41.40 40.34
37.97 32.76 34.66 40.87 44.25 40.00 37.59 33.47 33.18 34.11 30.92 35.69 36.09 36.45 35.86 42.91 36.34 35.73 38.15 37.47 37.65 33.63 38.96 40.19 37.53 37.41 45.28 49.60 50.09 51.67 52.40 52.44 52.09 50.34 49.77 49.16 47.21 45.04 44.13 43.71 42.99 41.80 40.67 38.75
38.20 40.12 41.56 40.30 37.89 35.79 31.10 29.90 32.28 31.45 29.24 36.48 35.81 36.08 38.31 40.40 45.29 40.00 39.32 34.84 36.60 33.01 40.66 37.59 36.86 43.85 47.78 49.01 49.59 51.58 51.84 52.63 51.63 50.81 49.33 48.45 46.39 45.24 44.56 43.28 41.50 40.78 40.31 39.00
41.71 37.44 34.84 35.26 34.21 27.09 25.54 22.93 27.12 28.77 35.53 37.96 39.10 37.71 39.23 40.62 43.10 39.00 37.71 33.30 33.10 38.49 34.33 34.36 41.84 47.01 48.47 49.95 50.68 50.87 52.26 52.03 50.54 49.31 48.66 47.17 45.28 45.28 44.08 41.88 40.98 40.23 37.92 37.25
34.21 31.31 27.03 28.70 26.64 29.33 30.43 30.27 30.88 34.96 36.48 37.79 39.69 38.50 38.39 40.44 38.38 38.42 33.30 36.35 34.04 31.02 31.73 36.04 45.01 47.58 48.25 50.72 52.32 51.58 52.12 51.10 48.77 46.99 45.73 44.52 43.51 42.30 41.83 40.06 38.66 36.86 36.26 35.34
32.91 32.82 25.46 27.67 33.48 35.68 36.27 39.40 38.11 37.80 38.45 38.37 37.82 34.99 38.28 35.07 33.65 37.62 35.73 31.49 29.41 35.60 38.02 43.94 42.67 44.56 45.17 46.12 48.54 51.76 50.98 44.62 45.40 44.19 41.61 38.38 38.72 38.47 36.68 36.42 37.75 36.54 31.59 29.71
34.07 32.16 30.18 33.91 32.97 33.95 36.15 36.66 36.56 41.85 40.92 40.08 38.31 33.39 33.21 34.25 35.98 33.96 32.97 32.99 34.05 40.37 44.03 41.49 41.72 41.20 42.43 44.29 44.91 44.94 43.34 43.53 42.04 40.57 38.01 36.02 34.42 32.88 32.91 33.53 30.98 29.88 29.31 27.63
30.54 30.76 35.83 35.55 35.08 34.97 36.28 37.75 37.92 41.53 38.46 31.93 34.52 29.17 32.85 37.55 34.02 33.35 37.49 35.45 39.44 41.76 40.80 40.22 40.58 41.00 41.28 42.31 40.60 40.18 40.26 39.28 38.38 37.46 35.03 32.37 32.68 30.70 29.51 27.99 28.43 28.68 27.89 27.55
MSLP
1026.79 1026.69 1026.72 1026.67 1026.19 1025.60 1024.55 1022.88 1020.97 1020.92 1021.21 1020.61 1018.72 1017.42 1016.48 1016.01 1013.99 1013.97 1013.12 1012.67 1011.72 1010.95 1010.49 1010.29 1010.16 1010.29 1010.69 1011.46 1011.64 1011.76 1011.67 1012.05 1012.28 1012.60 1013.59 1013.94 1013.86 1013.85 1014.46 1015.07 1014.88 1014.48 1013.74 1012.64
1026.60 1026.55 1026.68 1026.64 1026.33 1026.08 1024.36 1022.15 1021.13 1021.15 1021.15 1019.70 1017.93 1016.96 1016.23 1015.84 1014.70 1013.56 1013.13 1012.62 1012.13 1011.75 1011.23 1010.87 1010.54 1010.93 1012.05 1012.33 1012.27 1011.94 1012.26 1012.47 1012.40 1012.66 1014.02 1014.41 1014.23 1014.44 1015.24 1015.53 1015.24 1014.29 1013.69 1012.72
1026.34 1026.53 1026.65 1026.53 1026.43 1026.27 1025.68 1022.97 1022.14 1020.80 1021.12 1019.55 1018.42 1016.81 1015.88 1015.53 1015.05 1014.24 1013.48 1013.15 1012.77 1012.33 1011.80 1011.38 1011.00 1011.35 1012.53 1012.99 1012.87 1013.18 1013.09 1012.13 1012.18 1012.21 1012.26 1013.22 1014.21 1014.54 1015.84 1015.77 1015.14 1014.12 1013.13 1012.64
1026.15 1026.32 1026.54 1026.50 1026.46 1026.31 1025.88 1022.96 1022.35 1021.08 1020.61 1019.88 1018.73 1017.38 1015.84 1015.14 1014.78 1014.95 1014.44 1013.90 1013.36 1012.74 1012.19 1011.74 1011.57 1011.63 1012.42 1013.13 1013.29 1013.59 1013.26 1012.57 1012.36 1012.51 1012.76 1012.88 1012.93 1013.80 1014.76 1015.09 1014.16 1013.56 1012.80 1012.10
1025.74 1026.02 1026.29 1026.45 1026.46 1026.34 1025.69 1023.35 1022.68 1021.87 1020.88 1019.39 1018.64 1018.09 1016.95 1015.43 1014.64 1014.43 1014.31 1014.62 1013.90 1013.94 1013.13 1012.41 1011.74 1011.47 1011.80 1012.00 1012.90 1013.09 1013.11 1012.73 1012.52 1012.92 1012.74 1012.90 1012.72 1012.78 1013.05 1013.41 1013.16 1012.75 1012.51 1012.37
1025.32 1025.72 1026.03 1026.26 1026.46 1026.51 1025.00 1023.67 1023.46 1023.37 1020.89 1019.59 1018.29 1017.35 1017.39 1016.28 1015.76 1014.33 1014.25 1015.14 1014.71 1014.78 1014.44 1014.31 1013.50 1012.20 1011.47 1011.68 1012.08 1012.54 1012.85 1013.01 1013.08 1012.86 1012.91 1012.94 1012.71 1011.99 1011.77 1011.67 1012.02 1012.32 1012.23 1012.49
1024.91 1025.31 1025.69 1025.98 1026.19 1026.19 1025.14 1024.25 1023.56 1023.28 1021.61 1019.87 1018.30 1018.02 1017.96 1016.76 1016.01 1015.75 1015.15 1015.25 1015.44 1015.65 1015.99 1015.09 1013.94 1013.04 1012.61 1012.40 1012.28 1012.18 1012.49 1012.90 1013.58 1013.35 1013.40 1013.06 1011.43 1011.40 1011.34 1011.34 1011.01 1011.59 1012.56 1013.20
1024.36 1024.81 1025.22 1025.61 1025.90 1025.97 1025.49 1025.01 1024.52 1023.86 1022.49 1020.85 1019.72 1019.10 1018.54 1017.86 1017.44 1016.60 1015.40 1016.20 1016.37 1016.76 1016.67 1016.88 1014.78 1013.85 1013.22 1012.91 1012.63 1012.69 1012.67 1012.91 1013.93 1013.80 1013.01 1011.89 1011.03 1010.75 1011.27 1011.28 1011.25 1011.69 1012.41 1013.43
1023.78 1024.33 1024.80 1025.20 1025.54 1025.76 1025.64 1024.69 1024.98 1024.42 1023.65 1021.64 1020.72 1020.18 1019.84 1018.83 1018.25 1017.20 1016.54 1018.05 1018.05 1017.87 1017.73 1017.86 1016.29 1013.76 1013.04 1012.75 1012.75 1013.12 1013.01 1012.97 1013.57 1013.93 1012.96 1011.58 1010.53 1011.06 1011.32 1011.48 1011.12 1011.96 1012.68 1014.00
1023.25 1023.79 1024.29 1024.72 1025.23 1025.56 1025.43 1024.35 1024.91 1025.09 1023.98 1022.35 1021.86 1021.30 1021.48 1021.02 1020.49 1019.22 1017.41 1018.09 1018.97 1018.96 1018.79 1017.91 1016.30 1014.14 1012.20 1011.63 1011.92 1012.67 1012.84 1013.17 1013.34 1013.29 1012.57 1011.01 1010.22 1011.24 1011.70 1011.55 1011.72 1012.49 1013.26 1014.40
1022.77 1023.29 1023.80 1024.25 1024.70 1025.03 1025.19 1024.26 1024.46 1025.02 1024.00 1022.55 1021.95 1021.99 1021.79 1021.63 1021.95 1021.56 1020.48 1019.73 1019.27 1019.45 1019.08 1018.04 1015.56 1013.88 1012.03 1011.26 1010.92 1011.04 1011.70 1012.30 1012.65 1012.98 1012.52 1011.43 1010.35 1011.52 1011.78 1011.57 1012.23 1013.08 1014.09 1015.15
1022.28 1022.77 1023.31 1023.80 1024.30 1024.71 1025.12 1024.25 1023.89 1024.68 1024.46 1022.64 1022.16 1021.74 1021.59 1021.58 1022.31 1022.87 1022.39 1021.37 1019.46 1018.60 1018.02 1016.75 1015.20 1013.52 1012.01 1011.02 1010.43 1010.61 1010.64 1010.77 1011.02 1011.38 1011.35 1010.93 1010.63 1010.80 1011.53 1012.04 1012.76 1013.71 1014.77 1016.25
1021.83 1022.36 1022.84 1023.33 1023.86 1024.32 1024.70 1024.10 1023.77 1024.47 1024.20 1022.90 1021.89 1020.95 1020.90 1021.07 1021.47 1022.60 1022.77 1021.58 1020.19 1018.86 1017.57 1016.71 1015.21 1013.47 1011.93 1011.00 1010.20 1010.07 1010.34 1010.12 1010.53 1010.61 1010.45 1010.71 1010.84 1011.52 1011.98 1012.47 1013.33 1014.45 1015.66 1016.84
1021.40 1021.89 1022.38 1022.89 1023.39 1023.85 1024.27 1023.77 1023.70 1023.91 1023.29 1022.05 1020.02 1019.27 1019.11 1019.40 1019.85 1020.84 1021.57 1021.38 1021.45 1021.45 1020.41 1017.75 1015.81 1013.92 1012.60 1011.10 1010.17 1009.42 1009.14 1009.91 1009.88 1009.84 1009.99 1010.69 1011.13 1011.72 1012.30 1012.93 1014.07 1015.22 1016.34 1017.41
1020.91 1021.36 1021.87 1022.42 1022.94 1023.43 1023.78 1023.48 1023.48 1023.45 1023.77 1021.62 1020.13 1018.93 1018.50 1018.43 1019.14 1019.78 1020.92 1021.22 1021.54 1021.51 1019.81 1017.94 1016.27 1013.99 1013.05 1011.65 1010.52 1008.86 1008.80 1009.16 1009.09 1008.78 1009.12 1010.12 1010.40 1011.44 1012.47 1013.56 1014.60 1015.66 1016.67 1017.94
1020.40 1020.87 1021.38 1021.91 1022.46 1023.11 1023.40 1023.62 1022.88 1022.79 1023.14 1022.40 1019.96 1017.53 1017.15 1017.14 1017.43 1019.19 1019.86 1020.56 1021.01 1021.02 1019.25 1017.53 1015.49 1013.97 1013.50 1011.39 1009.64 1009.33 1008.43 1008.77 1008.75 1008.67 1008.99 1009.95 1010.51 1011.35 1012.60 1013.93 1015.06 1016.14 1017.26 1018.48
1019.96 1020.44 1020.96 1021.47 1022.02 1022.35 1022.51 1022.21 1021.92 1021.97 1022.43 1021.90 1019.60 1016.96 1015.36 1015.86 1016.13 1017.38 1018.26 1018.89 1019.34 1019.08 1018.42 1017.32 1015.14 1013.99 1013.60 1011.56 1009.40 1008.40 1007.92 1008.08 1008.82 1009.72 1010.37 1011.07 1011.14 1011.95 1013.21 1014.47 1015.82 1017.00 1018.06 1019.27
1019.64 1020.17 1020.75 1021.24 1021.71 1022.31 1022.36 1021.34 1021.49 1021.59 1021.55 1020.61 1018.96 1016.90 1015.59 1014.64 1014.76 1015.56 1016.54 1017.09 1017.56 1016.82 1016.85 1016.62 1015.65 1014.31 1013.26 1010.69 1009.34 1008.26 1007.36 1007.82 1008.90 1010.33 1010.56 1010.84 1012.03 1012.98 1014.02 1015.28 1016.57 1017.45 1018.62 1019.90
1019.46 1020.11 1020.72 1021.31 1021.96 1022.00 1021.11 1021.57 1021.91 1021.04 1021.21 1019.76 1018.17 1016.66 1014.68 1014.36 1014.69 1015.00 1015.81 1016.16 1016.39 1016.70 1015.80 1015.48 1014.72 1013.27 1011.00 1008.89 1008.35 1007.49 1007.19 1007.38 1008.80 1010.26 1011.05 1011.70 1012.44 1013.41 1014.64 1015.79 1016.89 1017.87 1019.19 1020.67
1019.58 1020.63 1021.29 1020.57 1020.56 1020.48 1021.22 1022.33 1021.09 1020.70 1020.32 1019.82 1018.27 1016.35 1014.87 1014.66 1014.83 1015.15 1015.42 1015.83 1016.03 1015.97 1014.79 1014.52 1013.23 1010.92 1009.93 1008.40 1007.51 1007.28 1007.03 1007.20 1008.40 1010.17 1011.32 1012.09 1012.93 1013.93 1015.03 1016.02 1017.26 1018.49 1019.81 1021.29
1019.91 1020.15 1019.58 1019.04 1019.30 1020.10 1020.01 1019.92 1019.32 1019.03 1018.65 1017.82 1016.85 1016.18 1015.02 1014.51 1015.10 1015.46 1015.75 1015.56 1015.39 1014.78 1013.53 1012.99 1011.02 1008.46 1007.53 1007.78 1007.36 1007.20 1006.81 1006.93 1007.86 1009.36 1010.10 1011.23 1012.34 1013.75 1015.00 1016.35 1017.84 1019.22 1020.54 1021.98
1019.04 1018.57 1018.95 1019.04 1018.58 1018.35 1018.34 1018.00 1017.70 1017.02 1016.09 1014.98 1014.50 1014.24 1014.71 1014.19 1014.26 1014.76 1015.65 1015.72 1015.35 1013.50 1012.39 1011.16 1007.56 1005.10 1005.71 1006.10 1006.10 1006.49 1006.66 1006.91 1007.94 1009.43 1010.34 1011.54 1012.96 1014.36 1015.64 1016.98 1018.47 1019.93 1021.26 1022.80
1018.51 1018.26 1018.21 1017.50 1016.97 1016.61 1016.16 1015.67 1015.29 1014.79 1014.19 1013.30 1013.40 1013.11 1013.35 1014.16 1014.20 1014.56 1014.84 1015.10 1014.13 1013.09 1010.85 1008.36 1005.17 1003.92 1003.95 1004.27 1004.90 1005.44 1006.18 1007.26 1008.34 1009.53 1010.77 1012.24 1013.68 1014.98 1016.11 1017.57 1019.39 1020.73 1022.24 1023.91
1017.63 1016.81 1016.41 1015.67 1015.10 1014.27 1013.46 1013.33 1013.63 1013.57 1013.20 1012.90 1012.74 1013.19 1013.35 1013.49 1013.56 1013.64 1014.02 1013.59 1013.23 1012.03 1009.22 1006.08 1004.70 1003.94 1003.68 1003.67 1003.78 1004.84 1005.68 1007.22 1008.74 1010.11 1011.43 1013.03 1014.51 1015.91 1017.39 1018.80 1020.28 1021.53 1023.04 1024.87
1016.98 1015.69 1014.74 1014.04 1013.44 1012.67 1012.75 1012.73 1012.53 1012.36 1012.72 1012.73 1013.75 1014.37 1013.99 1013.39 1013.52 1013.03 1012.70 1012.95 1011.88 1009.76 1006.63 1005.73 1005.61 1004.70 1004.70 1004.86 1004.57 1004.62 1006.04 1007.59 1009.57 1011.20 1012.40 1014.39 1015.84 1017.17 1018.56 1020.25 1021.47 1022.89 1024.40 1026.40
1015.92 1014.62 1013.56 1012.88 1012.37 1012.52 1012.75 1012.90 1012.99 1013.68 1013.86 1014.01 1014.76 1014.50 1013.46 1012.68 1012.19 1011.61 1011.08 1010.73 1009.07 1007.22 1006.80 1007.13 1006.71 1006.14 1006.09 1004.98 1005.72 1006.64 1007.72 1009.37 1011.36 1012.81 1013.98 1015.74 1017.08 1018.41 1019.97 1021.44 1023.08 1024.59 1025.88 1027.33
1014.80 1013.83 1013.01 1012.46 1012.38 1012.44 1012.68 1012.69 1013.17 1013.98 1014.40 1015.08 1014.96 1014.43 1012.50 1011.47 1010.89 1010.09 1009.50 1008.72 1008.66 1008.67 1008.77 1008.32 1007.88 1007.35 1007.08 1007.00 1008.56 1008.92 1009.79 1011.32 1013.01 1014.27 1015.79 1017.23 1018.74 1020.20 1021.37 1022.70 1024.66 1025.78 1027.18 1028.17
Wind_Speed
5 5 7 10 12 16 14 4 5 5 3 8 9 12 15 4 14 7 6 5 7 8 7 7 9 8 4 5 8 12 10 6 10 9 5 2 8 10 12 4 7 5 5 6
7 6 7 8 10 11 7 4 5 5 4 7 11 12 17 12 16 13 8 8 8 4 7 6 9 5 7 5 8 6 9 7 5 7 5 5 7 10 1 4 5 10 7 4
9 7 6 7 8 9 7 4 2 1 3 8 11 16 15 18 14 13 10 6 5 8 9 8 3 6 4 3 9 6 3 7 11 7 3 8 5 9 4 5 6 9 13 14
11 9 7 6 7 8 7 4 5 2 4 7 13 12 11 19 19 14 6 8 12 11 9 11 11 9 7 7 6 4 7 7 9 4 5 6 5 8 13 11 16 11 13 13
13 11 9 6 6 6 7 2 4 3 8 7 14 13 11 17 17 16 18 14 12 5 12 10 8 12 9 9 11 12 7 5 6 7 8 9 11 9 12 16 16 18 16 14
14 13 10 8 7 5 4 4 3 3 7 10 10 13 16 10 16 15 10 15 14 11 5 14 16 14 5 8 10 14 10 6 5 6 5 5 9 15 17 17 15 10 13 8
16 14 12 10 10 9 5 5 7 3 8 10 10 7 10 15 18 18 16 11 13 7 7 15 9 7 5 7 6 9 10 12 6 4 4 1 8 0 5 8 11 8 10 4
17 16 14 12 11 11 8 7 5 3 7 11 11 9 9 10 9 21 17 5 4 4 2 6 7 4 3 5 6 9 10 9 3 3 9 11 15 10 7 6 7 12 10 8
17 16 16 14 13 12 9 7 6 4 4 8 14 6 9 8 10 14 16 8 4 3 4 3 5 8 7 9 8 6 9 10 9 5 5 5 2 5 4 3 9 8 7 11
17 17 16 16 15 14 10 6 9 5 6 12 5 4 5 6 6 8 11 10 4 1 2 5 10 12 13 10 10 8 10 8 7 9 9 6 1 10 5 7 3 10 9 10
16 16 17 16 16 14 10 8 8 7 5 12 10 6 9 2 2 3 8 1 3 4 6 7 6 10 13 11 11 15 12 10 6 8 5 11 9 11 8 7 12 13 10 8
16 16 17 17 16 15 13 9 8 7 6 8 9 12 13 13 6 2 2 6 5 7 7 7 6 6 5 11 11 7 10 9 9 10 7 1 13 1 8 8 12 11 11 13
16 17 18 18 17 17 15 9 8 6 5 9 14 16 17 15 14 10 2 4 7 5 7 5 6 9 8 10 13 10 12 8 5 6 11 9 11 6 7 10 11 12 13 16
15 16 18 18 17 16 16 10 8 8 4 6 10 11 13 17 17 21 18 13 12 8 8 4 5 7 10 10 10 13 8 12 12 10 4 9 11 11 11 11 13 14 15 17
16 16 18 18 17 16 11 9 9 10 8 4 6 12 11 11 8 20 19 11 7 3 4 4 6 6 5 8 9 13 9 8 11 7 12 11 14 16 15 15 16 17 18 18
17 17 18 18 16 13 7 4 9 11 6 5 5 4 7 13 20 19 20 12 9 5 4 4 5 6 10 8 12 17 15 14 11 11 2 9 5 16 18 16 16 18 17 19
16 17 17 16 15 10 6 4 4 9 9 4 5 6 8 19 13 15 13 16 7 7 5 4 9 10 5 6 11 14 18 15 12 10 14 8 12 15 16 16 17 17 18 17
16 15 15 14 14 9 6 10 9 10 8 5 5 6 10 12 9 9 12 7 8 5 4 3 6 7 4 11 18 20 10 13 13 13 5 10 12 16 17 17 19 20 19 18
15 14 13 6 2 3 4 6 12 8 3 4 5 7 6 8 6 7 4 5 4 1 4 6 5 4 11 12 18 21 20 15 15 13 8 14 18 19 20 21 21 20 20 19
14 7 3 5 6 13 17 4 5 5 4 4 4 8 13 3 4 2 5 4 4 4 5 3 5 12 18 20 15 16 17 19 16 17 15 16 18 20 21 21 19 18 19 20
2 4 3 3 25 7 6 5 6 5 4 6 8 13 12 7 3 2 2 0 2 4 6 9 7 8 16 22 23 14 13 17 20 22 18 19 21 20 20 20 19 19 21 19
6 5 5 4 5 4 5 7 5 7 8 5 10 14 13 8 4 4 6 3 3 8 7 7 9 12 16 22 24 21 14 13 19 16 16 18 21 21 19 19 19 20 20 19
5 4 6 4 5 7 7 10 6 7 4 4 6 6 9 9 4 4 4 5 7 4 5 6 7 9 14 18 22 23 20 16 17 15 17 19 21 21 19 20 18 20 20 19
4 5 9 7 6 7 6 8 11 9 10 9 5 5 7 5 8 4 5 4 2 4 7 8 5 8 10 15 15 19 24 22 20 18 21 21 20 20 19 18 17 19 19 19
5 6 6 7 5 7 7 2 2 8 8 9 2 1 6 4 3 5 3 2 5 9 5 3 2 1 6 9 8 16 16 14 17 18 20 19 20 20 19 19 18 18 17 17
4 5 5 6 8 5 5 5 3 2 3 4 2 4 6 6 4 6 7 4 6 5 3 2 1 5 5 10 10 13 17 18 17 17 19 18 18 20 20 16 17 17 18 17
6 4 5 7 7 7 6 6 4 4 2 4 5 6 7 4 5 6 7 8 4 10 7 3 2 8 10 13 12 14 16 17 18 19 19 19 19 18 19 21 18 19 17 15
Wind_Direction
258 295 319 328 336 327 283 289 238 83 133 207 214 227 221 273 239 229 248 279 283 267 216 227 232 236 241 173 189 209 208 241 227 216 94 320 301 240 214 195 221 241 291 270
240 270 301 319 336 338 311 266 317 83 194 217 229 223 220 231 237 215 216 229 235 211 253 243 226 238 70 192 214 223 157 225 212 201 177 189 226 213 24 322 272 244 238 264
224 242 270 304 324 333 290 293 287 211 197 272 278 229 221 212 233 269 203 266 292 223 235 241 269 205 139 222 235 27 287 230 208 241 22 124 196 195 169 207 229 239 249 253
219 222 242 277 308 323 282 226 254 342 216 214 246 264 248 226 218 221 212 243 244 233 236 230 222 242 149 199 156 217 237 228 234 249 230 223 209 198 187 201 226 231 252 252
211 217 223 240 276 301 262 246 303 343 292 275 205 239 256 258 217 222 218 244 224 266 265 241 237 230 214 208 176 209 212 242 214 236 235 247 251 241 226 221 238 240 251 264
208 213 216 217 232 249 258 283 154 284 291 236 251 217 227 249 258 235 239 209 223 228 309 329 315 320 249 244 185 205 200 223 198 233 209 257 263 243 246 248 228 254 262 270
207 209 209 206 218 236 269 288 301 269 265 247 234 248 310 252 246 240 215 205 213 224 325 327 265 257 231 220 225 212 209 208 187 231 187 256 247 33 291 281 274 209 241 165
207 208 207 203 213 227 254 258 269 274 261 289 296 273 292 277 269 257 264 131 113 127 91 337 244 219 194 254 218 203 231 204 213 171 226 259 277 213 208 220 255 203 217 140
204 207 206 202 206 222 249 241 257 263 282 251 263 302 276 268 268 266 209 99 28 11 147 145 258 222 191 194 173 222 212 237 215 200 228 236 79 118 152 151 247 165 174 155
207 206 207 204 203 214 234 243 228 254 246 259 285 252 329 358 2 302 249 148 128 58 142 183 221 248 232 204 190 183 193 193 209 221 239 250 201 142 166 232 130 147 154 153
207 206 207 207 204 208 225 245 225 228 260 264 275 264 253 286 343 303 349 129 163 163 171 207 215 230 237 239 209 197 189 184 190 223 239 251 157 144 221 90 132 138 138 139
208 208 209 206 204 205 214 245 229 230 250 281 309 287 274 268 294 223 302 304 248 181 188 229 221 221 257 215 220 180 219 209 197 182 206 174 160 4 148 153 140 145 134 129
210 211 207 205 204 207 211 230 241 214 242 268 249 248 248 229 227 180 222 277 343 279 313 262 238 238 202 212 228 200 225 187 218 186 210 199 179 145 169 150 145 136 139 141
213 214 210 205 205 210 214 225 230 238 274 264 266 247 230 230 228 195 208 245 271 319 305 261 255 225 252 246 253 240 215 178 208 218 115 163 192 173 166 145 133 137 138 145
215 216 208 203 206 212 222 231 236 233 237 272 303 307 274 256 217 197 214 235 244 281 269 220 224 241 261 244 268 243 191 204 214 218 202 200 193 182 169 156 155 148 146 142
210 206 201 202 204 203 212 239 227 226 229 264 259 255 260 250 206 196 208 215 223 223 250 251 235 241 219 228 228 231 241 227 234 235 153 181 131 170 161 163 156 151 148 147
198 198 199 198 197 200 192 219 359 210 184 242 258 255 225 218 224 195 215 210 203 209 213 239 238 205 212 256 233 224 230 201 215 114 120 133 152 156 159 153 150 144 142 144
193 191 190 196 199 206 228 239 292 220 195 236 251 261 257 204 203 201 201 213 198 202 180 193 214 245 234 238 227 241 223 205 171 180 213 166 151 155 150 148 151 148 147 143
184 182 189 174 142 204 207 149 252 214 256 233 217 241 252 162 203 213 157 204 195 98 211 201 185 203 219 223 225 215 223 226 178 186 186 146 157 155 156 158 158 153 149 148
172 119 170 189 199 156 108 174 199 184 208 225 263 242 256 269 196 153 201 175 202 215 215 136 225 234 228 248 221 230 224 224 176 167 167 162 162 164 165 168 161 155 151 149
108 191 202 243 143 155 188 195 182 172 221 212 228 239 252 186 218 181 324 298 188 230 195 212 217 237 223 224 236 245 239 210 178 192 178 176 167 164 164 162 157 153 151 152
179 183 130 158 195 175 191 181 187 199 212 194 221 204 221 260 195 214 153 227 208 246 156 205 240 225 216 210 220 213 211 221 176 194 175 167 164 162 160 153 152 151 147 143
183 217 177 216 184 182 201 170 198 202 220 231 218 215 189 214 247 233 173 226 230 325 214 225 245 194 201 204 203 208 193 191 180 181 161 157 156 156 150 145 147 146 141 142
204 191 173 213 172 205 185 194 204 220 232 235 250 244 190 199 196 171 223 213 13 263 244 221 215 197 197 212 198 197 192 179 172 160 149 150 149 143 139 142 136 139 140 141
229 205 199 204 190 193 194 157 232 203 230 254 154 337 250 151 217 220 166 217 236 235 240 177 12 272 163 175 187 187 173 137 147 147 142 139 141 140 133 132 141 135 121 125
246 246 188 204 203 177 187 196 182 68 8 341 187 182 273 206 221 190 198 239 240 278 21 39 205 128 134 118 94 111 124 134 141 138 134 135 136 132 130 119 111 118 124 128
210 196 222 180 196 196 209 211 199 100 81 9 288 194 245 155 210 206 195 218 294 346 335 340 170 150 143 118 127 127 127 129 131 134 128 124 123 118 119 117 123 126 124 121